Cloud_Cover
0 0 0 5 14 0 1 0 5 4 0 0 0 0 0 0 0 0 45 100 100 66 40 20 95 88 98 100 21 9 36 100 100 39 100 100 99 26 36 100 100 100 100 61 6 12 5 14 7
0 0 0 0 8 6 8 18 5 0 0 0 0 0 0 0 0 32 34 56 99 97 90 25 100 56 96 38 4 5 5 100 100 100 100 100 100 100 100 100 100 100 100 100 34 8 10 70 100
0 0 0 0 1 69 17 5 5 1 0 0 0 0 0 0 4 56 99 65 100 99 98 80 36 94 47 3 5 6 77 100 100 99 100 100 100 100 100 100 100 100 90 47 47 80 100 100 33
0 0 0 0 0 0 0 0 0 0 0 0 0 0 0 0 3 5 9 100 100 100 100 100 100 100 54 76 79 75 96 100 100 100 100 100 100 100 100 100 100 41 68 21 100 100 74 4 2
0 0 0 0 0 0 0 0 0 0 0 0 1 55 36 0 1 9 100 100 95 91 96 43 31 30 6 44 100 100 98 100 100 100 100 100 100 100 100 100 100 100 98 99 92 6 9 5 3
0 0 0 0 0 1 0 0 0 0 0 0 14 20 99 55 1 73 71 64 98 68 5 23 40 60 4 100 100 100 100 100 100 100 100 100 100 100 100 100 100 100 100 46 32 13 7 80 55
5 5 1 3 5 5 2 0 0 0 0 45 100 49 74 100 100 100 100 100 99 88 61 99 3 24 58 100 100 100 100 100 100 100 100 100 100 100 82 100 99 100 92 73 6 12 6 52 18
5 5 11 54 5 5 0 0 0 0 5 100 99 49 100 98 100 100 100 100 100 100 49 98 100 100 100 100 100 100 100 100 100 100 100 100 100 100 100 86 100 78 10 12 5 5 8 5 14
9 7 47 36 8 0 0 0 0 0 9 100 8 81 100 100 100 100 100 100 100 100 100 100 100 100 100 100 100 100 100 100 100 100 100 100 100 100 8 37 100 100 73 92 92 96 99 100 100
8 7 49 5 1 0 0 0 0 0 69 60 93 95 100 100 100 100 100 100 100 100 100 100 100 100 100 100 100 100 100 100 100 100 100 100 100 93 100 62 54 62 94 82 73 63 100 100 100
8 4 31 5 0 0 0 0 0 9 100 44 99 96 100 100 100 100 100 100 100 100 100 100 100 100 100 100 100 100 100 100 100 100 100 100 100 100 100 96 75 100 96 100 100 90 73 100 100
22 0 4 0 0 0 0 0 0 86 96 71 99 97 100 100 100 100 100 100 100 100 100 100 100 100 100 100 100 100 100 100 100 100 100 100 100 100 100 100 63 69 68 100 91 56 84 99 97
0 0 0 0 0 0 0 0 6 100 100 98 33 71 100 100 100 100 100 100 100 100 100 100 100 100 100 100 100 100 100 100 100 100 100 100 100 100 100 100 99 84 95 99 99 63 80 94 100
0 5 3 0 0 0 0 0 1 41 99 76 99 100 100 100 100 100 100 100 100 100 100 100 100 100 100 100 100 100 100 100 100 100 100 100 100 100 100 96 100 99 88 87 96 88 73 91 97
5 5 4 0 0 0 0 0 0 0 12 90 89 53 94 100 100 100 100 100 100 100 100 100 100 100 100 100 100 100 100 100 100 100 100 100 100 99 100 100 100 100 100 100 100 100 100 100 100
21 10 5 0 0 0 0 0 0 0 33 31 44 100 100 100 100 100 100 100 100 100 100 100 100 100 100 100 100 100 100 100 100 100 100 100 100 100 100 100 100 100 100 100 100 100 100 100 100
81 6 5 5 0 0 0 0 0 1 13 5 33 81 100 99 100 100 100 100 100 100 100 100 100 100 100 100 100 100 100 100 100 100 100 100 100 100 100 100 100 100 100 100 100 100 100 100 100
88 6 9 13 0 0 0 0 0 6 27 1 3 47 96 68 93 100 100 100 100 100 100 100 100 100 100 100 100 100 100 100 100 100 100 100 100 100 100 100 100 100 100 100 100 100 100 100 100
26 5 7 31 5 2 5 0 0 0 9 0 0 92 100 40 19 70 100 100 100 100 100 100 100 100 100 100 100 100 100 90 100 100 100 100 100 100 100 100 100 100 100 100 100 100 100 100 100
13 26 31 5 5 5 1 4 0 0 0 0 2 3 38 60 100 97 100 100 100 100 100 100 100 100 100 100 100 100 100 100 100 100 100 100 100 100 100 100 100 100 100 100 100 100 100 100 100
61 94 45 5 58 5 5 5 1 0 0 0 0 0 0 6 100 100 100 100 100 91 100 100 100 100 100 100 100 100 100 100 100 100 100 100 100 100 100 100 100 100 100 100 100 100 100 100 100
8 99 68 7 22 88 5 25 5 4 0 0 0 0 0 0 46 100 100 100 100 42 82 100 98 100 100 100 100 100 100 100 100 100 100 100 100 100 100 100 100 100 100 100 100 100 100 100 100
98 44 74 7 79 51 100 5 5 5 2 0 0 0 0 0 2 96 100 99 100 100 70 100 99 98 100 100 98 100 100 100 100 100 100 100 100 100 100 100 100 100 100 100 100 100 100 100 100
89 79 77 5 75 100 100 33 6 7 5 2 0 0 2 0 0 6 25 20 92 100 100 100 98 98 99 68 55 98 99 100 100 100 100 100 100 100 100 100 100 100 100 100 100 100 95 99 100
6 56 12 5 98 100 100 85 95 5 6 5 4 0 0 0 0 8 54 64 44 71 100 99 69 89 87 46 94 95 96 100 100 100 100 100 100 100 100 100 100 100 100 100 99 100 100 100 100
92 64 98 99 91 100 100 100 100 64 5 5 5 4 0 0 0 0 0 2 1 6 89 100 99 56 2 6 32 72 100 100 100 100 100 100 100 100 100 100 100 100 89 56 81 100 100 88 77
38 67 94 19 71 100 95 100 100 100 5 10 5 16 7 0 0 0 0 0 0 0 1 16 76 76 40 5 5 5 5 5 5 5 6 5 47 5 5 38 8 9 30 16 45 98 100 83 64
88 95 100 38 59 100 70 100 100 100 74 5 9 5 5 5 0 0 0 0 0 0 3 85 20 5 68 100 100 99 95 12 5 28 70 100 52 13 44 40 62 69 48 44 92 78 93 79 96
96 58 96 22 13 38 100 100 100 100 100 96 5 5 5 34 17 5 0 0 0 10 2 5 5 5 48 5 28 98 100 100 99 100 89 100 96 96 86 88 99 92 100 100 100 100 100 100 98
96 65 100 100 18 54 100 100 100 100 99 100 100 26 5 5 5 5 12 0 0 0 0 0 3 5 34 86 42 69 80 92 100 100 62 79 99 96 100 67 100 100 100 100 100 100 100 100 100